Location: Newark
(46.7636°N, 1.8358°W)
Time: 12:58:43
(UTC+00:00)

Vanguard 1 Rocket - Pass Details

Date: 27 October 2019
Orbit: 651 x 4226 km, 34.3° (Epoch: 20 November)

Event Time Altitude Azimuth Distance (km) Brightness Sun altitude
Rises 14:25:40 0° 276° (W) 6,520 12.3 21.1°
Reaches altitude 10° 14:29:50 10° 269° (W) 5,925 12.3 20.7°
Maximum altitude 14:47:31 39° 210° (SSW) 5,117 12.7 18.6°
Drops below altitude 10° 15:09:49 10° 152° (SSE) 7,289 12.2 15.7°
Sets 15:15:51 0° 145° (SE) 8,089 12.3 14.9°
